Vorticity
5 4 4 5 5 4 6 6 7 6 6 6 6 6 5 4 4 5 5 5 4 6 6 5 5 6 6 5 7 6 12 13 15 18 24 15 11 14 -3 6 22 23 16 8 10 12 25
6 4 4 5 6 4 4 4 5 6 8 7 6 5 6 6 6 6 6 6 5 6 7 6 5 6 6 5 7 7 11 11 12 11 16 14 8 3 15 17 5 20 16 16 9 5 8
6 4 4 5 5 5 5 5 6 6 7 8 8 7 5 5 5 6 6 5 5 5 6 5 5 5 7 5 6 9 10 8 12 14 12 15 9 8 6 2 10 19 12 10 11 13 19
7 5 5 4 5 6 5 6 7 7 8 9 8 8 8 7 5 5 5 5 5 6 6 6 5 6 6 5 5 9 12 9 8 10 13 15 16 13 12 15 14 5 18 21 26 17 9
6 6 5 4 3 5 6 6 6 7 8 8 8 8 7 7 7 8 7 6 5 5 6 6 3 5 6 7 7 3 9 11 11 11 12 9 13 15 9 16 14 12 10 4 6 12 16
4 6 6 3 2 3 6 6 6 7 7 7 7 8 8 8 7 7 8 7 7 6 7 5 5 6 4 6 7 6 5 10 10 13 15 12 11 14 11 8 16 17 14 17 6 11 15
3 5 7 5 4 3 6 7 7 7 7 8 9 9 8 7 7 8 8 9 10 9 6 8 6 7 7 5 5 7 6 7 8 15 9 8 10 14 10 8 8 16 10 20 10 16 7
3 3 5 7 6 6 7 8 7 6 6 7 7 8 9 9 9 9 7 7 7 6 9 9 8 9 7 4 4 6 9 9 7 9 13 5 5 13 11 15 19 7 10 17 10 2 34
4 3 3 6 7 5 7 8 6 5 4 5 5 6 6 8 8 11 10 10 11 9 9 4 6 6 8 8 3 5 7 7 7 5 10 14 3 11 15 9 14 15 11 15 19 8 -6
5 3 2 3 5 4 5 6 8 5 4 4 4 4 3 4 7 6 7 8 9 8 5 3 6 4 2 3 6 6 4 6 9 9 2 9 5 3 5 4 6 9 13 15 21 20 9
7 8 -2 3 3 4 4 3 5 7 5 4 4 4 3 2 3 4 4 5 6 8 10 8 9 7 9 10 5 4 6 5 3 8 9 6 2 2 -1 1 3 6 12 13 11 18 9
1 11 3 7 5 4 4 4 4 4 6 5 4 4 5 5 4 4 4 4 3 5 5 4 2 1 -2 1 7 9 4 7 5 4 7 9 9 9 10 9 7 11 10 16 21 14 12
5 1 6 6 7 2 4 6 6 5 5 6 6 4 4 5 4 4 4 5 3 3 3 2 2 1 -1 2 11 10 10 7 5 6 5 4 10 9 6 9 10 7 8 15 12 12 16
16 14 13 4 12 10 16 -3 8 8 7 6 8 6 5 3 4 4 3 6 4 3 5 4 3 3 4 2 2 -2 4 6 6 5 6 4 4 6 9 8 7 6 7 12 9 15 17
9 7 7 8 51 -11 10 15 5 16 10 10 9 10 7 6 4 4 4 4 2 3 2 5 3 2 2 1 4 5 6 16 5 14 3 8 5 6 6 6 10 6 5 6 15 19 13
4 5 4 5 -4 27 -6 2 15 -11 -5 10 5 -0 5 7 6 7 4 4 5 3 3 2 2 3 -0 3 7 4 4 -3 4 9 14 10 8 5 4 7 5 11 10 5 4 8 12
17 22 17 4 5 6 11 6 1 2 13 3 8 6 0 4 7 4 6 5 4 4 3 4 2 1 3 6 4 3 -0 -1 8 4 7 17 9 9 8 2 7 9 8 8 8 6 7
1 5 16 13 12 21 3 2 3 6 5 46 -3 6 -2 5 -0 -4 -1 9 4 5 6 4 4 4 7 4 8 3 4 1 1 4 1 9 18 5 11 8 1 6 6 5 10 5 4
4 0 1 3 0 4 17 20 20 16 11 9 -6 -8 13 -0 9 9 12 19 2 4 3 6 5 4 4 6 7 -4 5 4 2 4 0 3 9 20 6 12 11 2 4 10 7 8 9
-4 6 -13 1 9 3 2 1 3 3 10 14 9 8 13 12 8 9 1 4 20 1 3 3 -0 5 8 5 2 5 10 11 6 2 -1 8 -0 14 12 9 10 6 2 1 8 8 9
7 12 16 20 13 6 6 6 4 2 1 1 1 2 3 8 16 13 6 3 5 5 19 3 -3 -0 -2 -2 7 6 -1 -6 2 8 13 8 13 12 10 15 12 8 11 5 2 4 13
30 27 27 21 17 20 23 13 17 18 16 10 8 6 4 4 3 -0 9 12 13 9 4 3 5 2 5 3 12 -1 -1 -3 0 7 8 6 5 13 9 6 15 12 12 14 6 1 5
7 7 6 5 6 6 7 8 8 8 8 8 9 13 10 9 7 4 8 3 4 16 10 11 2 6 4 11 1 1 13 5 5 2 0 15 11 6 12 14 13 14 12 18 9 8 3
3 4 6 7 7 6 7 6 7 7 7 8 9 11 7 9 9 12 6 6 5 2 5 18 7 4 6 5 3 3 6 2 14 4 -1 4 2 17 12 16 12 15 9 14 22 7 9
6 3 5 8 7 5 3 6 10 9 13 12 16 7 9 -0 7 9 14 12 7 4 4 10 4 11 8 6 6 6 3 7 8 5 4 6 7 5 7 9 15 10 13 8 10 22 11
4 4 2 2 3 4 3 2 5 7 9 6 19 13 10 -2 11 17 12 11 12 7 8 4 5 7 7 7 7 2 2 3 2 8 4 3 3 9 3 7 12 13 17 11 10 10 11
7 6 5 2 2 3 5 4 -3 -1 11 12 12 17 13 6 15 12 10 15 14 10 10 8 8 6 7 9 7 9 5 5 4 5 5 5 4 5 9 6 4 13 15 8 8 9 11
2 1 7 7 9 7 3 6 11 7 9 13 12 10 10 14 16 17 15 10 8 11 12 10 9 9 8 12 8 5 8 6 6 5 4 8 5 2 6 11 3 10 15 12 9 9 8
14 14 15 15 8 4 10 18 22 21 19 13 11 8 5 9 23 16 12 16 16 12 12 15 12 6 9 8 11 11 7 9 4 6 4 5 3 5 8 7 9 10 12 9 12 8 11
Height
5831 5831 5832 5832 5832 5831 5830 5830 5829 5828 5827 5825 5824 5822 5821 5819 5817 5815 5813 5811 5807 5804 5800 5796 5792 5787 5781 5775 5766 5756 5747 5738 5729 5720 5712 5707 5702 5698 5694 5689 5684 5679 5679 5679 5679 5679 5680
5829 5830 5831 5830 5830 5830 5830 5829 5828 5827 5825 5823 5822 5820 5819 5816 5815 5813 5810 5808 5805 5802 5798 5794 5789 5784 5778 5773 5764 5754 5745 5737 5728 5720 5712 5707 5702 5698 5693 5688 5683 5679 5677 5676 5676 5675 5674
5828 5829 5829 5829 5828 5828 5828 5827 5826 5825 5823 5821 5819 5817 5816 5814 5812 5810 5808 5805 5802 5799 5796 5792 5787 5782 5776 5771 5762 5754 5745 5737 5728 5720 5713 5707 5702 5697 5692 5688 5683 5678 5675 5674 5672 5671 5670
5826 5826 5827 5827 5827 5826 5826 5825 5824 5822 5820 5819 5817 5815 5813 5812 5810 5807 5806 5803 5800 5798 5794 5790 5786 5781 5775 5769 5762 5754 5746 5738 5728 5721 5714 5708 5701 5696 5690 5686 5682 5678 5673 5671 5669 5668 5666
5824 5824 5824 5825 5824 5824 5823 5823 5822 5820 5818 5816 5814 5813 5811 5810 5807 5805 5803 5800 5798 5795 5792 5788 5784 5779 5775 5767 5761 5755 5747 5739 5730 5722 5716 5709 5702 5695 5690 5686 5681 5676 5673 5669 5667 5665 5664
5820 5820 5821 5821 5821 5821 5820 5820 5819 5817 5816 5815 5812 5810 5809 5808 5805 5802 5801 5798 5795 5793 5790 5786 5782 5780 5774 5768 5761 5754 5747 5740 5732 5724 5718 5712 5704 5698 5690 5685 5680 5675 5672 5669 5666 5665 5660
5816 5817 5818 5819 5818 5818 5818 5817 5817 5815 5813 5812 5810 5808 5806 5804 5803 5801 5799 5797 5795 5791 5787 5784 5781 5776 5771 5766 5760 5754 5747 5741 5733 5727 5720 5710 5704 5695 5692 5687 5682 5677 5673 5669 5666 5661 5659
5813 5814 5814 5815 5815 5814 5814 5814 5813 5813 5811 5809 5808 5806 5804 5802 5800 5798 5796 5794 5792 5790 5786 5782 5778 5774 5770 5765 5761 5754 5748 5743 5735 5728 5721 5714 5706 5699 5694 5689 5685 5680 5675 5670 5665 5662 5657
5808 5809 5810 5811 5811 5811 5810 5810 5810 5810 5808 5808 5806 5804 5802 5800 5798 5796 5794 5792 5789 5786 5784 5781 5777 5772 5769 5765 5759 5754 5749 5742 5736 5730 5723 5716 5712 5703 5698 5693 5687 5682 5676 5671 5666 5663 5658
5802 5804 5805 5806 5807 5807 5807 5807 5807 5806 5805 5805 5804 5802 5800 5799 5798 5794 5792 5789 5788 5785 5783 5781 5777 5772 5767 5763 5759 5753 5748 5744 5738 5733 5726 5720 5713 5708 5702 5695 5689 5685 5679 5674 5668 5664 5659
5796 5798 5799 5800 5801 5802 5802 5802 5802 5802 5801 5801 5801 5800 5798 5796 5795 5793 5792 5788 5785 5783 5782 5780 5776 5772 5767 5763 5759 5753 5748 5743 5738 5733 5728 5723 5716 5710 5705 5699 5693 5689 5682 5677 5671 5666 5663
5790 5791 5793 5794 5795 5795 5796 5796 5796 5796 5796 5795 5795 5795 5794 5793 5791 5790 5788 5786 5784 5783 5779 5777 5774 5771 5767 5763 5758 5753 5747 5742 5738 5733 5729 5724 5718 5712 5707 5701 5695 5690 5686 5679 5673 5669 5665
5781 5784 5786 5788 5788 5789 5790 5790 5790 5790 5791 5790 5790 5789 5789 5789 5789 5786 5785 5783 5783 5779 5777 5775 5771 5768 5765 5762 5758 5752 5747 5741 5737 5734 5730 5724 5719 5714 5709 5704 5699 5692 5686 5681 5677 5671 5669
5775 5776 5777 5779 5780 5781 5783 5783 5783 5784 5784 5785 5785 5784 5783 5783 5783 5782 5781 5780 5778 5776 5774 5771 5768 5765 5762 5760 5757 5751 5747 5743 5737 5732 5728 5724 5720 5715 5709 5705 5701 5695 5689 5682 5678 5676 5674
5768 5769 5770 5772 5773 5774 5775 5775 5776 5776 5776 5777 5778 5778 5777 5777 5776 5776 5776 5775 5773 5772 5770 5768 5766 5763 5760 5758 5754 5749 5746 5741 5736 5731 5727 5723 5719 5716 5711 5706 5702 5698 5694 5689 5685 5681 5678
5759 5761 5762 5764 5765 5766 5767 5767 5768 5768 5768 5769 5769 5770 5770 5769 5769 5769 5769 5769 5767 5766 5765 5763 5760 5759 5756 5753 5750 5747 5743 5741 5736 5731 5726 5722 5721 5715 5712 5708 5704 5700 5697 5693 5688 5685 5682
5752 5753 5754 5754 5755 5756 5758 5758 5758 5759 5759 5760 5760 5760 5762 5760 5761 5761 5761 5761 5760 5760 5758 5758 5756 5753 5752 5750 5747 5744 5741 5738 5734 5730 5725 5720 5718 5716 5710 5707 5704 5701 5698 5694 5692 5689 5685
5744 5744 5745 5745 5745 5746 5747 5748 5748 5748 5748 5748 5749 5750 5752 5751 5752 5752 5753 5753 5752 5752 5751 5750 5749 5748 5746 5743 5743 5740 5737 5733 5730 5727 5724 5719 5714 5712 5709 5706 5703 5700 5697 5695 5693 5691 5687
5735 5735 5735 5736 5736 5735 5736 5736 5736 5736 5737 5737 5737 5738 5739 5741 5740 5743 5743 5744 5742 5743 5744 5742 5741 5741 5740 5738 5735 5735 5732 5730 5726 5722 5719 5717 5711 5707 5706 5704 5702 5699 5696 5694 5692 5690 5688
5723 5723 5723 5723 5724 5723 5724 5724 5725 5725 5725 5726 5725 5725 5727 5730 5730 5731 5733 5732 5732 5733 5734 5734 5733 5733 5732 5730 5729 5726 5726 5724 5721 5718 5714 5711 5711 5705 5702 5699 5694 5696 5694 5691 5690 5688 5687
5708 5708 5708 5709 5709 5710 5711 5711 5711 5710 5711 5713 5714 5713 5713 5716 5719 5720 5720 5720 5719 5723 5724 5724 5724 5725 5723 5720 5722 5719 5718 5716 5715 5713 5709 5705 5704 5700 5698 5693 5691 5689 5690 5688 5687 5685 5684
5692 5692 5693 5694 5695 5696 5697 5696 5694 5695 5696 5697 5699 5699 5699 5704 5705 5705 5707 5708 5709 5711 5713 5713 5713 5714 5711 5711 5712 5706 5710 5708 5706 5706 5702 5700 5695 5692 5693 5689 5684 5686 5683 5683 5682 5681 5680
5681 5681 5682 5681 5682 5682 5682 5682 5682 5682 5683 5682 5682 5683 5681 5690 5688 5691 5693 5697 5697 5697 5698 5701 5701 5699 5700 5704 5701 5699 5698 5697 5696 5696 5695 5692 5688 5683 5685 5682 5680 5680 5678 5676 5675 5675 5675
5669 5668 5669 5669 5669 5668 5667 5667 5667 5666 5667 5668 5667 5665 5665 5672 5670 5678 5679 5678 5680 5680 5685 5687 5686 5686 5690 5691 5690 5689 5688 5688 5688 5688 5686 5683 5680 5677 5675 5674 5673 5671 5671 5669 5668 5667 5668
5653 5652 5652 5652 5651 5650 5650 5650 5650 5649 5649 5650 5649 5646 5644 5651 5656 5664 5660 5663 5665 5667 5668 5670 5671 5673 5676 5678 5677 5676 5676 5676 5679 5678 5679 5678 5673 5670 5668 5665 5666 5666 5663 5661 5660 5661 5660
5636 5635 5634 5633 5632 5631 5630 5629 5629 5629 5628 5630 5631 5627 5625 5627 5646 5644 5642 5648 5648 5648 5652 5656 5658 5659 5660 5661 5663 5661 5661 5664 5665 5668 5669 5670 5667 5665 5661 5657 5655 5657 5654 5653 5651 5653 5653
5618 5618 5616 5615 5614 5612 5611 5610 5609 5610 5611 5610 5610 5607 5603 5602 5632 5620 5624 5629 5633 5633 5634 5635 5641 5643 5644 5645 5646 5647 5649 5652 5651 5655 5658 5658 5657 5655 5652 5647 5649 5649 5646 5644 5644 5646 5642
5598 5596 5594 5593 5591 5590 5588 5588 5587 5587 5589 5590 5592 5586 5581 5579 5606 5600 5606 5611 5615 5614 5616 5620 5622 5625 5627 5628 5630 5634 5635 5637 5638 5642 5644 5647 5645 5646 5644 5641 5639 5638 5638 5637 5636 5634 5633
5574 5572 5570 5569 5567 5565 5566 5565 5563 5561 5564 5565 5573 5567 5559 5554 5585 5578 5588 5594 5595 5600 5596 5593 5605 5607 5609 5610 5615 5619 5621 5624 5626 5626 5629 5631 5636 5635 5635 5633 5631 5626 5625 5625 5625 5626 5625